,,,PA_Meas_PMT16A,,PR_Meas_QMR101_102,,RH_Meas_QMH101,,SR_Meas_QMS101,,TA_Meas_QMH101,,GenWind,,GenWind,
date,time,status,PA,status,PR,status,RH,status,SR,status,TA,status,DirAvg,status,SpdAvg,
2012-02-22, 00:00:04,VALID,1003.88,VALID,0,VALID,90.982,VALID,0,VALID,24.2662,VALID,349,VALID,0.512109,
2012-02-22, 00:01:04,VALID,1003.91,VALID,0,VALID,91.0888,VALID,0,VALID,24.2468,VALID,349,VALID,0.428516,
2012-02-22, 00:02:04,VALID,1003.88,VALID,0,VALID,91.2338,VALID,0,VALID,24.2273,VALID,349,VALID,0.488672,
2012-02-22, 00:03:04,VALID,1003.9,VALID,0,VALID,91.3177,VALID,0,VALID,24.2078,VALID,349,VALID,0.672656,
2012-02-22, 00:04:04,VALID,1003.9,VALID,0,VALID,91.4626,VALID,0.0815089,VALID,24.1884,VALID,349,VALID,0.466406,
2012-02-22, 00:05:04,VALID,1003.95,VALID,0,VALID,91.6534,VALID,0,VALID,24.1902,VALID,349,VALID,0.495703,
2012-02-22, 00:06:04,VALID,1003.96,VALID,0,VALID,91.722,VALID,0,VALID,24.1494,VALID,349,VALID,0.515234,
2012-02-22, 00:07:04,VALID,1003.96,VALID,0,VALID,91.7602,VALID,0,VALID,24.1494,VALID,349,VALID,0.330859,
2012-02-22, 00:08:04,VALID,1003.93,VALID,0,VALID,91.8441,VALID,0,VALID,24.13,VALID,349,VALID,0.498047,
2012-02-22, 00:09:04,VALID,1003.94,VALID,0,VALID,91.9509,VALID,0,VALID,24.13,VALID,349,VALID,0.492969,
2012-02-22, 00:10:04,VALID,1003.92,VALID,0,VALID,91.928,VALID,0,VALID,24.13,VALID,349,VALID,0.358984,
2012-02-22, 00:11:04,VALID,1003.86,VALID,0,VALID,91.9433,VALID,0,VALID,24.1105,VALID,349,VALID,0.455469,
2012-02-22, 00:12:04,VALID,1003.86,VALID,0,VALID,91.9128,VALID,0,VALID,24.1105,VALID,349,VALID,0.595312,
2012-02-22, 00:13:04,VALID,1003.85,VALID,0,VALID,91.9204,VALID,0.0815089,VALID,24.091,VALID,349,VALID,0.526953,
2012-02-22, 00:14:04,VALID,1003.84,VALID,0,VALID,92.0272,VALID,0,VALID,24.0716,VALID,349,VALID,0.424609,
2012-02-22, 00:15:04,VALID,1003.82,VALID,0,VALID,92.1111,VALID,0,VALID,24.0716,VALID,349,VALID,0.384375,
2012-02-22, 00:16:04,VALID,1003.78,VALID,0,VALID,92.1569,VALID,0,VALID,24.091,VALID,349,VALID,0.291406,
2012-02-22, 00:17:04,VALID,1003.78,VALID,0,VALID,92.1645,VALID,0,VALID,24.0716,VALID,349,VALID,0.420703,
2012-02-22, 00:18:04,VALID,1003.77,VALID,0,VALID,92.2027,VALID,0,VALID,24.0716,VALID,349,VALID,0.45625,
2012-02-22, 00:19:04,VALID,1003.75,VALID,0,VALID,92.2713,VALID,0,VALID,24.0326,VALID,349,VALID,0.568359,
2012-02-22, 00:20:04,VALID,1003.77,VALID,0,VALID,92.3857,VALID,0,VALID,24.0326,VALID,349,VALID,0.390625,
2012-02-22, 00:21:04,VALID,1003.75,VALID,0,VALID,92.4315,VALID,0,VALID,24.0114,VALID,349,VALID,0.415625,
2012-02-22, 00:22:04,VALID,1003.73,VALID,0,VALID,92.4391,VALID,0,VALID,24.0132,VALID,349,VALID,0.481641,
2012-02-22, 00:23:04,VALID,1003.73,VALID,0,VALID,92.4925,VALID,0,VALID,24.0326,VALID,349,VALID,0.447656,
2012-02-22, 00:24:04,VALID,1003.73,VALID,0,VALID,92.5307,VALID,0,VALID,24.0345,VALID,349,VALID,0.373828,
2012-02-22, 00:25:04,VALID,1003.69,VALID,0,VALID,92.5383,VALID,0,VALID,24.0132,VALID,349,VALID,0.398047,
2012-02-22, 00:26:04,VALID,1003.68,VALID,0,VALID,92.6146,VALID,0,VALID,24.0132,VALID,349,VALID,0.465234,
2012-02-22, 00:27:04,VALID,1003.65,VALID,0,VALID,92.6528,VALID,0,VALID,24.0132,VALID,349,VALID,0.301953,
2012-02-22, 00:28:04,VALID,1003.6,VALID,0,VALID,92.6604,VALID,0,VALID,24.0326,VALID,349,VALID,0,
2012-02-22, 00:29:04,VALID,1003.6,VALID,0,VALID,92.7443,VALID,0,VALID,24.0521,VALID,349,VALID,0.0933594,
2012-02-22, 00:30:04,VALID,1003.6,VALID,0,VALID,92.7519,VALID,0,VALID,24.0716,VALID,349,VALID,0.0992187,
2012-02-22, 00:31:04,VALID,1003.6,VALID,0,VALID,92.813,VALID,0,VALID,24.1105,VALID,349,VALID,0.0632813,
2012-02-22, 00:32:04,VALID,1003.57,VALID,0,VALID,92.7824,VALID,0,VALID,24.1105,VALID,349,VALID,0,
2012-02-22, 00:33:04,VALID,1003.57,VALID,0,VALID,92.7214,VALID,0,VALID,24.1689,VALID,349,VALID,0.015625,
2012-02-22, 00:34:04,VALID,1003.57,VALID,0,VALID,92.6299,VALID,0,VALID,24.2078,VALID,349,VALID,0.0785156,
2012-02-22, 00:35:04,VALID,1003.55,VALID,0,VALID,92.4773,VALID,0,VALID,24.2273,VALID,349,VALID,0,
2012-02-22, 00:36:04,VALID,1003.52,VALID,0,VALID,92.3247,VALID,0,VALID,24.2662,VALID,349,VALID,0,
2012-02-22, 00:37:04,VALID,1003.5,VALID,0,VALID,92.1874,VALID,0,VALID,24.307,VALID,345,VALID,0,
2012-02-22, 00:38:04,VALID,1003.47,VALID,0,VALID,91.9738,VALID,0,VALID,24.3052,VALID,344,VALID,0,
2012-02-22, 00:39:04,VALID,1003.45,VALID,0,VALID,91.9051,VALID,0,VALID,24.2857,VALID,344,VALID,0,
2012-02-22, 00:40:04,VALID,1003.48,VALID,0,VALID,91.8822,VALID,0,VALID,24.3052,VALID,344,VALID,0,
2012-02-22, 00:41:04,VALID,1003.45,VALID,0,VALID,91.8517,VALID,0,VALID,24.3052,VALID,344,VALID,0,
2012-02-22, 00:42:04,VALID,1003.44,VALID,0,VALID,91.722,VALID,0,VALID,24.3052,VALID,344,VALID,0,
2012-02-22, 00:43:04,VALID,1003.45,VALID,0,VALID,91.661,VALID,0,VALID,24.3052,VALID,344,VALID,0,
2012-02-22, 00:44:04,VALID,1003.47,VALID,0,VALID,91.6457,VALID,0,VALID,24.3052,VALID,344,VALID,0,
2012-02-22, 00:45:04,VALID,1003.45,VALID,0,VALID,91.661,VALID,0,VALID,24.3052,VALID,344,VALID,0,
2012-02-22, 00:46:04,VALID,1003.49,VALID,0,VALID,91.4398,VALID,0,VALID,24.3052,VALID,344,VALID,0,
2012-02-22, 00:47:04,VALID,1003.51,VALID,0,VALID,91.4626,VALID,0,VALID,24.2468,VALID,344,VALID,0,
2012-02-22, 00:48:04,VALID,1003.5,VALID,0,VALID,91.5542,VALID,0,VALID,24.206,VALID,344,VALID,0,
2012-02-22, 00:49:04,VALID,1003.5,VALID,0,VALID,91.6229,VALID,0,VALID,24.1884,VALID,344,VALID,0,
2012-02-22, 00:50:04,VALID,1003.49,VALID,0,VALID,91.7297,VALID,0,VALID,24.2097,VALID,344,VALID,0,
2012-02-22, 00:51:04,VALID,1003.43,VALID,0,VALID,91.8212,VALID,0,VALID,24.1689,VALID,344,VALID,0,
2012-02-22, 00:52:04,VALID,1003.45,VALID,0,VALID,91.8288,VALID,0,VALID,24.1494,VALID,344,VALID,0,
2012-02-22, 00:53:04,VALID,1003.42,VALID,0,VALID,91.9433,VALID,0,VALID,24.13,VALID,344,VALID,0,
2012-02-22, 00:54:04,VALID,1003.4,VALID,0,VALID,92.0424,VALID,0,VALID,24.1105,VALID,344,VALID,0,
2012-02-22, 00:55:04,VALID,1003.38,VALID,0,VALID,92.0882,VALID,0,VALID,24.0716,VALID,344,VALID,0,
2012-02-22, 00:56:04,VALID,1003.38,VALID,0,VALID,92.1569,VALID,0,VALID,24.0716,VALID,344,VALID,0,
2012-02-22, 00:57:04,VALID,1003.36,VALID,0,VALID,92.2332,VALID,0,VALID,24.0326,VALID,344,VALID,0,
2012-02-22, 00:58:04,VALID,1003.3,VALID,0,VALID,92.34,VALID,0,VALID,24.0326,VALID,344,VALID,0,
2012-02-22, 00:59:04,VALID,1003.3,VALID,0,VALID,92.3705,VALID,0,VALID,23.9919,VALID,344,VALID,0,
2012-02-22, 01:00:04,VALID,1003.28,VALID,0,VALID,92.3705,VALID,0,VALID,24.0132,VALID,344,VALID,0,
2012-02-22, 01:01:04,VALID,1003.28,VALID,0,VALID,92.3552,VALID,0,VALID,23.9742,VALID,344,VALID,0,
2012-02-22, 01:02:04,VALID,1003.27,VALID,0,VALID,92.5231,VALID,0,VALID,23.9335,VALID,344,VALID,0,
2012-02-22, 01:03:04,VALID,1003.29,VALID,0,VALID,92.6375,VALID,0,VALID,23.9548,VALID,344,VALID,0,
2012-02-22, 01:04:04,VALID,1003.3,VALID,0,VALID,92.7367,VALID,0,VALID,23.9548,VALID,344,VALID,0,
2012-02-22, 01:05:04,VALID,1003.3,VALID,0,VALID,92.7596,VALID,0,VALID,23.9548,VALID,344,VALID,0,
2012-02-22, 01:06:04,VALID,1003.3,VALID,0,VALID,92.7901,VALID,0,VALID,23.9335,VALID,344,VALID,0,
2012-02-22, 01:07:04,VALID,1003.26,VALID,0,VALID,92.7824,VALID,0,VALID,23.9955,VALID,344,VALID,0,
2012-02-22, 01:08:04,VALID,1003.28,VALID,0,VALID,93.0189,VALID,0,VALID,23.9742,VALID,344,VALID,0,
2012-02-22, 01:09:04,VALID,1003.25,VALID,0,VALID,93.0876,VALID,0,VALID,24.0345,VALID,344,VALID,0,
2012-02-22, 01:10:04,VALID,1003.26,VALID,0,VALID,92.9961,VALID,0,VALID,24.0132,VALID,344,VALID,0.503906,
2012-02-22, 01:11:04,VALID,1003.26,VALID,0,VALID,92.9274,VALID,0,VALID,24.0521,VALID,344,VALID,0.339844,
2012-02-22, 01:12:04,VALID,1003.24,VALID,0,VALID,92.813,VALID,0,VALID,24.0521,VALID,344,VALID,0.489062,
2012-02-22, 01:13:04,VALID,1003.23,VALID,0,VALID,92.6756,VALID,0,VALID,24.0521,VALID,344,VALID,0.544141,
2012-02-22, 01:14:04,VALID,1003.25,VALID,0,VALID,92.6222,VALID,0,VALID,24.0132,VALID,344,VALID,0.426562,
2012-02-22, 01:15:04,VALID,1003.25,VALID,0,VALID,92.5841,VALID,0,VALID,24.0132,VALID,344,VALID,0.450391,
2012-02-22, 01:16:04,VALID,1003.26,VALID,0,VALID,92.5841,VALID,0,VALID,24.0132,VALID,344,VALID,0.414063,
2012-02-22, 01:17:04,VALID,1003.26,VALID,0,VALID,92.6528,VALID,0,VALID,23.9937,VALID,344,VALID,0.364844,
2012-02-22, 01:18:04,VALID,1003.25,VALID,0,VALID,92.6833,VALID,0,VALID,23.9742,VALID,344,VALID,0.253906,
2012-02-22, 01:19:04,VALID,1003.26,VALID,0,VALID,92.6756,VALID,0,VALID,23.9937,VALID,344,VALID,0,
2012-02-22, 01:20:04,VALID,1003.29,VALID,0,VALID,92.7443,VALID,0,VALID,23.9937,VALID,344,VALID,0,
2012-02-22, 01:21:04,VALID,1003.28,VALID,0,VALID,92.8053,VALID,0,VALID,23.9937,VALID,344,VALID,0.046875,
2012-02-22, 01:22:04,VALID,1003.26,VALID,0,VALID,92.8206,VALID,0,VALID,23.9937,VALID,344,VALID,0.178125,
2012-02-22, 01:23:04,VALID,1003.29,VALID,0,VALID,92.8206,VALID,0,VALID,24.015,VALID,344,VALID,0.535937,
2012-02-22, 01:24:04,VALID,1003.29,VALID,0,VALID,92.8206,VALID,0,VALID,23.9937,VALID,344,VALID,0.660937,
2012-02-22, 01:25:04,VALID,1003.3,VALID,0,VALID,92.7824,VALID,0,VALID,23.9955,VALID,344,VALID,0.563672,
2012-02-22, 01:26:04,VALID,1003.3,VALID,0,VALID,92.8206,VALID,0,VALID,23.9937,VALID,344,VALID,0.625781,
2012-02-22, 01:27:04,VALID,1003.33,VALID,0,VALID,92.8358,VALID,0,VALID,23.9335,VALID,344,VALID,0.518359,
2012-02-22, 01:28:04,VALID,1003.38,VALID,0,VALID,92.8816,VALID,0.0815089,VALID,23.9548,VALID,344,VALID,0.553906,
2012-02-22, 01:29:04,VALID,1003.36,VALID,0,VALID,92.9961,VALID,0,VALID,23.9353,VALID,344,VALID,0.392188,
2012-02-22, 01:30:04,VALID,1003.4,VALID,0,VALID,93.0876,VALID,0.0815089,VALID,23.9548,VALID,344,VALID,0.488672,
2012-02-22, 01:31:04,VALID,1003.4,VALID,0,VALID,93.1791,VALID,0,VALID,23.9742,VALID,344,VALID,0.369141,
2012-02-22, 01:32:04,VALID,1003.39,VALID,0,VALID,93.1181,VALID,0,VALID,23.9335,VALID,344,VALID,0.219922,
2012-02-22, 01:33:04,VALID,1003.36,VALID,0,VALID,93.1791,VALID,0.0815089,VALID,23.9742,VALID,344,VALID,0.28125,
2012-02-22, 01:34:04,VALID,1003.38,VALID,0,VALID,93.1868,VALID,0,VALID,23.9937,VALID,344,VALID,0.347266,
2012-02-22, 01:35:04,VALID,1003.35,VALID,0,VALID,93.0647,VALID,0,VALID,23.9937,VALID,344,VALID,0.539453,
2012-02-22, 01:36:04,VALID,1003.33,VALID,0,VALID,93.0723,VALID,0,VALID,23.9742,VALID,344,VALID,0.651563,
2012-02-22, 01:37:04,VALID,1003.28,VALID,0,VALID,93.0266,VALID,0,VALID,23.9724,VALID,344,VALID,0.575,
2012-02-22, 01:38:04,VALID,1003.28,VALID,0,VALID,92.9426,VALID,0.0815089,VALID,23.953,VALID,344,VALID,0.544141,
2012-02-22, 01:39:04,VALID,1003.25,VALID,0,VALID,92.9732,VALID,0,VALID,23.9335,VALID,344,VALID,0.346875,
2012-02-22, 01:40:04,VALID,1003.21,VALID,0,VALID,92.8892,VALID,0.0815089,VALID,23.9548,VALID,344,VALID,0.596484,
2012-02-22, 01:41:04,VALID,1003.17,VALID,0,VALID,92.9274,VALID,0,VALID,23.9159,VALID,344,VALID,0.532422,
2012-02-22, 01:42:04,VALID,1003.1,VALID,0,VALID,93.0723,VALID,0,VALID,23.9159,VALID,344,VALID,0.422266,
2012-02-22, 01:43:04,VALID,1003.06,VALID,0,VALID,93.1181,VALID,0,VALID,23.9353,VALID,344,VALID,0.539063,
2012-02-22, 01:44:04,VALID,1003,VALID,0,VALID,93.1029,VALID,0,VALID,23.9159,VALID,344,VALID,0.504687,
2012-02-22, 01:45:04,VALID,1003.03,VALID,0,VALID,93.1639,VALID,0,VALID,23.9159,VALID,344,VALID,0.49375,
2012-02-22, 01:46:04,VALID,1003.05,VALID,0,VALID,93.1257,VALID,0,VALID,23.9159,VALID,344,VALID,0.358203,
2012-02-22, 01:47:04,VALID,1003.06,VALID,0,VALID,93.2249,VALID,0.0815089,VALID,23.9353,VALID,344,VALID,0.412109,
2012-02-22, 01:48:04,VALID,1003.02,VALID,0,VALID,93.2631,VALID,0.0815089,VALID,23.914,VALID,344,VALID,0.605469,
2012-02-22, 01:49:04,VALID,1002.98,VALID,0,VALID,93.5148,VALID,0,VALID,23.9919,VALID,338,VALID,0.592188,
2012-02-22, 01:50:04,VALID,1002.97,VALID,0,VALID,93.2631,VALID,0.0815089,VALID,24.0716,VALID,338,VALID,0.669922,
2012-02-22, 01:51:04,VALID,1002.94,VALID,0,VALID,93.0418,VALID,0,VALID,24.1105,VALID,342,VALID,0.848828,
2012-02-22, 01:52:04,VALID,1002.95,VALID,0,VALID,92.8358,VALID,0,VALID,24.1494,VALID,357,VALID,0.674609,
2012-02-22, 01:53:04,VALID,1002.91,VALID,0,VALID,92.5307,VALID,0.0815089,VALID,24.1689,VALID,357,VALID,0.556641,
2012-02-22, 01:54:04,VALID,1002.87,VALID,0,VALID,92.4239,VALID,0,VALID,24.2078,VALID,354,VALID,0.745313,
2012-02-22, 01:55:04,VALID,1002.83,VALID,0,VALID,92.3323,VALID,0,VALID,24.2468,VALID,344,VALID,0.489453,
2012-02-22, 01:56:04,VALID,1002.79,VALID,0,VALID,92.0501,VALID,0,VALID,24.2839,VALID,340,VALID,0.421094,
2012-02-22, 01:57:04,VALID,1002.79,VALID,0,VALID,91.8441,VALID,0,VALID,24.3441,VALID,339,VALID,0.197656,
2012-02-22, 01:58:04,VALID,1002.78,VALID,0,VALID,91.6839,VALID,0,VALID,24.3849,VALID,339,VALID,0,
2012-02-22, 01:59:04,VALID,1002.8,VALID,0,VALID,91.6381,VALID,0,VALID,24.4043,VALID,339,VALID,0.273828,
2012-02-22, 02:00:04,VALID,1002.81,VALID,0,VALID,91.6305,VALID,0,VALID,24.422,VALID,339,VALID,0.539844,
2012-02-22, 02:01:04,VALID,1002.84,VALID,0,VALID,91.4321,VALID,0,VALID,24.4804,VALID,343,VALID,0.435547,
2012-02-22, 02:02:04,VALID,1002.84,VALID,0,VALID,91.127,VALID,0,VALID,24.5193,VALID,343,VALID,0.542969,
2012-02-22, 02:03:04,VALID,1002.85,VALID,0,VALID,90.7608,VALID,0,VALID,24.5369,VALID,343,VALID,0.395703,
2012-02-22, 02:04:04,VALID,1002.85,VALID,0,VALID,90.4404,VALID,0,VALID,24.5777,VALID,343,VALID,0.446484,
2012-02-22, 02:05:04,VALID,1002.82,VALID,0,VALID,90.4022,VALID,0,VALID,24.5777,VALID,344,VALID,0.502734,
2012-02-22, 02:06:04,VALID,1002.83,VALID,0,VALID,90.4633,VALID,0,VALID,24.5777,VALID,344,VALID,0.353906,
2012-02-22, 02:07:04,VALID,1002.82,VALID,0,VALID,90.509,VALID,0,VALID,24.5582,VALID,344,VALID,0.519531,
2012-02-22, 02:08:04,VALID,1002.83,VALID,0,VALID,90.5319,VALID,0,VALID,24.5582,VALID,344,VALID,0.399609,
2012-02-22, 02:09:04,VALID,1002.8,VALID,0,VALID,90.6082,VALID,0.0815089,VALID,24.5388,VALID,344,VALID,0.335547,
2012-02-22, 02:10:04,VALID,1002.78,VALID,0,VALID,90.715,VALID,0,VALID,24.5388,VALID,344,VALID,0.255469,
2012-02-22, 02:11:04,VALID,1002.76,VALID,0,VALID,90.6692,VALID,0,VALID,24.5193,VALID,344,VALID,0.181641,
2012-02-22, 02:12:04,VALID,1002.71,VALID,0,VALID,90.6387,VALID,0,VALID,24.5193,VALID,344,VALID,0.190234,
2012-02-22, 02:13:04,VALID,1002.71,VALID,0,VALID,90.6769,VALID,0,VALID,24.5406,VALID,344,VALID,0.213281,
2012-02-22, 02:14:04,VALID,1002.72,VALID,0,VALID,90.7532,VALID,0,VALID,24.4998,VALID,344,VALID,0.535156,
2012-02-22, 02:15:04,VALID,1002.74,VALID,0,VALID,90.8371,VALID,0,VALID,24.4804,VALID,355,VALID,0.649219,
2012-02-22, 02:16:04,VALID,1002.74,VALID,0,VALID,90.9363,VALID,0,VALID,24.4609,VALID,358,VALID,0.297656,
2012-02-22, 02:17:04,VALID,1002.74,VALID,0,VALID,91.0125,VALID,0,VALID,24.4414,VALID,358,VALID,0,
2012-02-22, 02:18:04,VALID,1002.77,VALID,0,VALID,91.1575,VALID,0,VALID,24.422,VALID,358,VALID,0,
2012-02-22, 02:19:04,VALID,1002.76,VALID,0,VALID,91.2033,VALID,0,VALID,24.4006,VALID,358,VALID,0.071875,
2012-02-22, 02:20:04,VALID,1002.72,VALID,0,VALID,91.1728,VALID,0.0815089,VALID,24.422,VALID,358,VALID,0,
2012-02-22, 02:21:04,VALID,1002.71,VALID,0,VALID,91.188,VALID,0,VALID,24.4006,VALID,358,VALID,0,
2012-02-22, 02:22:05,VALID,1002.71,VALID,0,VALID,91.249,VALID,0,VALID,24.422,VALID,358,VALID,0.255469,
2012-02-22, 02:23:04,VALID,1002.72,VALID,0,VALID,91.333,VALID,0,VALID,24.4006,VALID,358,VALID,0,
2012-02-22, 02:24:04,VALID,1002.75,VALID,0,VALID,91.455,VALID,0,VALID,24.4238,VALID,358,VALID,0,
2012-02-22, 02:25:04,VALID,1002.76,VALID,0,VALID,91.4932,VALID,0,VALID,24.422,VALID,358,VALID,0,
2012-02-22, 02:26:05,VALID,1002.77,VALID,0,VALID,91.5008,VALID,0,VALID,24.4238,VALID,358,VALID,0,
2012-02-22, 02:27:05,VALID,1002.78,VALID,0,VALID,91.4779,VALID,0,VALID,24.4025,VALID,358,VALID,0,
2012-02-22, 02:28:05,VALID,1002.75,VALID,0,VALID,91.455,VALID,0,VALID,24.3849,VALID,358,VALID,0,
2012-02-22, 02:29:05,VALID,1002.74,VALID,0,VALID,91.5389,VALID,0,VALID,24.3867,VALID,358,VALID,0,
2012-02-22, 02:30:05,VALID,1002.74,VALID,0,VALID,91.6534,VALID,0,VALID,24.3849,VALID,358,VALID,0,
2012-02-22, 02:31:05,VALID,1002.76,VALID,0,VALID,91.7297,VALID,0,VALID,24.3654,VALID,358,VALID,0,
2012-02-22, 02:32:05,VALID,1002.79,VALID,0,VALID,91.7602,VALID,0,VALID,24.3441,VALID,358,VALID,0.142969,
2012-02-22, 02:33:05,VALID,1002.8,VALID,0,VALID,91.7983,VALID,0,VALID,24.3265,VALID,359,VALID,0.612109,
2012-02-22, 02:34:05,VALID,1002.85,VALID,0,VALID,91.928,VALID,0,VALID,24.3283,VALID,360,VALID,0.464453,
2012-02-22, 02:35:05,VALID,1002.86,VALID,0,VALID,92.1264,VALID,0,VALID,24.2875,VALID,360,VALID,0.430078,
2012-02-22, 02:36:05,VALID,1002.84,VALID,0,VALID,92.3018,VALID,0,VALID,24.2681,VALID,360,VALID,0.569922,
2012-02-22, 02:37:05,VALID,1002.81,VALID,0,VALID,92.4315,VALID,0,VALID,24.2681,VALID,360,VALID,0.363281,
2012-02-22, 02:38:05,VALID,1002.79,VALID,0,VALID,92.5383,VALID,0,VALID,24.2875,VALID,360,VALID,0.365234,
2012-02-22, 02:39:05,VALID,1002.76,VALID,0,VALID,92.6299,VALID,0,VALID,24.3052,VALID,360,VALID,0.272266,
2012-02-22, 02:40:05,VALID,1002.76,VALID,0,VALID,92.7138,VALID,0,VALID,24.3246,VALID,360,VALID,0.333984,
2012-02-22, 02:41:05,VALID,1002.76,VALID,0,VALID,92.8435,VALID,0,VALID,24.3654,VALID,360,VALID,0.444141,
2012-02-22, 02:42:05,VALID,1002.77,VALID,0,VALID,92.8816,VALID,0,VALID,24.3849,VALID,360,VALID,0.450391,
2012-02-22, 02:43:05,VALID,1002.77,VALID,0,VALID,92.7824,VALID,0,VALID,24.3636,VALID,360,VALID,0.744141,
2012-02-22, 02:44:05,VALID,1002.76,VALID,0,VALID,92.668,VALID,0,VALID,24.3441,VALID,354,VALID,0.642578,
2012-02-22, 02:45:05,VALID,1002.74,VALID,0,VALID,92.607,VALID,0.0815089,VALID,24.3246,VALID,354,VALID,0.702734,
2012-02-22, 02:46:05,VALID,1002.74,VALID,0,VALID,92.7062,VALID,0,VALID,24.3246,VALID,354,VALID,0.378906,
2012-02-22, 02:47:05,VALID,1002.73,VALID,0,VALID,92.7519,VALID,0,VALID,24.3052,VALID,354,VALID,0.341406,
2012-02-22, 02:48:05,VALID,1002.73,VALID,0,VALID,92.7824,VALID,0,VALID,24.3246,VALID,354,VALID,0.216797,
2012-02-22, 02:49:05,VALID,1002.76,VALID,0,VALID,92.7901,VALID,0,VALID,24.3265,VALID,354,VALID,0.345703,
2012-02-22, 02:50:05,VALID,1002.72,VALID,0,VALID,92.813,VALID,0,VALID,24.3033,VALID,354,VALID,0.341797,
2012-02-22, 02:51:05,VALID,1002.73,VALID,0,VALID,92.8892,VALID,0.0815089,VALID,24.3441,VALID,354,VALID,0.350781,
2012-02-22, 02:52:05,VALID,1002.69,VALID,0,VALID,92.9121,VALID,0,VALID,24.3636,VALID,354,VALID,0.461719,
2012-02-22, 02:53:05,VALID,1002.7,VALID,0,VALID,92.8206,VALID,0,VALID,24.3636,VALID,354,VALID,0.558203,
2012-02-22, 02:54:05,VALID,1002.69,VALID,0,VALID,92.8892,VALID,0,VALID,24.383,VALID,354,VALID,0.613281,
2012-02-22, 02:55:05,VALID,1002.64,VALID,0,VALID,92.874,VALID,0,VALID,24.4025,VALID,354,VALID,0.581641,
2012-02-22, 02:56:05,VALID,1002.63,VALID,0,VALID,92.8511,VALID,0,VALID,24.4025,VALID,354,VALID,0.555859,
2012-02-22, 02:57:05,VALID,1002.57,VALID,0,VALID,92.8969,VALID,0,VALID,24.4025,VALID,354,VALID,0.565234,
2012-02-22, 02:58:05,VALID,1002.56,VALID,0,VALID,92.9045,VALID,0.0815089,VALID,24.4006,VALID,354,VALID,0.514844,
2012-02-22, 02:59:05,VALID,1002.57,VALID,0,VALID,92.9045,VALID,0,VALID,24.422,VALID,354,VALID,0.347266,
2012-02-22, 03:00:05,VALID,1002.55,VALID,0,VALID,92.9884,VALID,0,VALID,24.422,VALID,354,VALID,0.260938,
2012-02-22, 03:01:05,VALID,1002.58,VALID,0,VALID,93.0037,VALID,0.0815089,VALID,24.4414,VALID,354,VALID,0.429297,
2012-02-22, 03:02:05,VALID,1002.58,VALID,0,VALID,92.9884,VALID,0,VALID,24.4414,VALID,354,VALID,0.374609,
2012-02-22, 03:03:05,VALID,1002.58,VALID,0,VALID,93.0189,VALID,0,VALID,24.4414,VALID,354,VALID,0.433594,
2012-02-22, 03:04:05,VALID,1002.56,VALID,0,VALID,93.0342,VALID,0,VALID,24.4609,VALID,354,VALID,0.355859,
2012-02-22, 03:05:05,VALID,1002.55,VALID,0,VALID,92.9426,VALID,0,VALID,24.4822,VALID,354,VALID,0.939844,
2012-02-22, 03:06:05,VALID,1002.52,VALID,0,VALID,92.9274,VALID,0,VALID,24.459,VALID,353,VALID,0.726172,
2012-02-22, 03:07:05,VALID,1002.52,VALID,0,VALID,92.9579,VALID,0,VALID,24.5212,VALID,353,VALID,0.7,
2012-02-22, 03:08:05,VALID,1002.52,VALID,0,VALID,92.935,VALID,0,VALID,24.4998,VALID,353,VALID,0.71875,
2012-02-22, 03:09:05,VALID,1002.48,VALID,0,VALID,92.8892,VALID,0,VALID,24.5017,VALID,352,VALID,0.660547,
2012-02-22, 03:10:05,VALID,1002.43,VALID,0,VALID,92.8816,VALID,0,VALID,24.5193,VALID,347,VALID,0.696875,
2012-02-22, 03:11:05,VALID,1002.38,VALID,0,VALID,92.8282,VALID,0.0815089,VALID,24.5388,VALID,341,VALID,0.654297,
2012-02-22, 03:12:05,VALID,1002.36,VALID,0,VALID,92.6756,VALID,0,VALID,24.5582,VALID,343,VALID,0.686719,
2012-02-22, 03:13:05,VALID,1002.35,VALID,0,VALID,92.546,VALID,0.0815089,VALID,24.5777,VALID,339,VALID,0.410547,
2012-02-22, 03:14:05,VALID,1002.36,VALID,0,VALID,92.3629,VALID,0,VALID,24.6166,VALID,339,VALID,0.208203,
2012-02-22, 03:15:05,VALID,1002.38,VALID,0,VALID,92.2255,VALID,0,VALID,24.6361,VALID,339,VALID,0.332031,
2012-02-22, 03:16:05,VALID,1002.4,VALID,0,VALID,92.0348,VALID,0,VALID,24.6556,VALID,339,VALID,0.190625,
2012-02-22, 03:17:05,VALID,1002.39,VALID,0,VALID,91.9128,VALID,0,VALID,24.6361,VALID,339,VALID,0.00585938,
2012-02-22, 03:18:05,VALID,1002.43,VALID,0,VALID,91.8517,VALID,0,VALID,24.6769,VALID,339,VALID,0,
2012-02-22, 03:19:05,VALID,1002.46,VALID,0,VALID,91.7602,VALID,0,VALID,24.6556,VALID,339,VALID,0,
2012-02-22, 03:20:05,VALID,1002.5,VALID,0,VALID,91.7525,VALID,0,VALID,24.6556,VALID,339,VALID,0,
2012-02-22, 03:21:05,VALID,1002.55,VALID,0,VALID,91.7602,VALID,0,VALID,24.6537,VALID,339,VALID,0,
2012-02-22, 03:22:05,VALID,1002.57,VALID,0,VALID,91.7373,VALID,0,VALID,24.675,VALID,339,VALID,0,
2012-02-22, 03:23:05,VALID,1002.6,VALID,0,VALID,91.6076,VALID,0,VALID,24.6769,VALID,339,VALID,0.408594,
2012-02-22, 03:24:05,VALID,1002.63,VALID,0,VALID,91.6152,VALID,0,VALID,24.6166,VALID,339,VALID,0.233984,
2012-02-22, 03:25:05,VALID,1002.59,VALID,0,VALID,91.6305,VALID,0,VALID,24.6166,VALID,339,VALID,0.241016,
2012-02-22, 03:26:05,VALID,1002.57,VALID,0,VALID,91.6076,VALID,0,VALID,24.5777,VALID,339,VALID,0,
2012-02-22, 03:27:05,VALID,1002.51,VALID,0,VALID,91.6991,VALID,0,VALID,24.5777,VALID,339,VALID,0,
2012-02-22, 03:28:05,VALID,1002.48,VALID,0,VALID,91.6686,VALID,0,VALID,24.5777,VALID,339,VALID,0,
2012-02-22, 03:29:05,VALID,1002.48,VALID,0,VALID,91.6152,VALID,0,VALID,24.5174,VALID,339,VALID,0,
2012-02-22, 03:30:05,VALID,1002.49,VALID,0,VALID,91.6839,VALID,0.0815089,VALID,24.498,VALID,339,VALID,0,
2012-02-22, 03:31:05,VALID,1002.45,VALID,0,VALID,91.7678,VALID,0,VALID,24.4804,VALID,339,VALID,0,
2012-02-22, 03:32:05,VALID,1002.48,VALID,0,VALID,91.8441,VALID,0,VALID,24.4804,VALID,339,VALID,0,
2012-02-22, 03:33:05,VALID,1002.49,VALID,0,VALID,91.9128,VALID,0,VALID,24.4628,VALID,339,VALID,0,
2012-02-22, 03:34:05,VALID,1002.53,VALID,0,VALID,91.9509,VALID,0,VALID,24.4414,VALID,339,VALID,0,
2012-02-22, 03:35:05,VALID,1002.51,VALID,0,VALID,91.928,VALID,0,VALID,24.4025,VALID,339,VALID,0,
2012-02-22, 03:36:05,VALID,1002.54,VALID,0,VALID,91.9738,VALID,0,VALID,24.4043,VALID,339,VALID,0,
2012-02-22, 03:37:05,VALID,1002.52,VALID,0,VALID,91.989,VALID,0,VALID,24.3636,VALID,339,VALID,0,
2012-02-22, 03:38:05,VALID,1002.48,VALID,0,VALID,92.1187,VALID,0,VALID,24.3441,VALID,339,VALID,0,
2012-02-22, 03:39:05,VALID,1002.49,VALID,0,VALID,92.2103,VALID,0,VALID,24.3246,VALID,339,VALID,0,
2012-02-22, 03:40:05,VALID,1002.51,VALID,0,VALID,92.2408,VALID,0,VALID,24.2857,VALID,339,VALID,0,
2012-02-22, 03:41:05,VALID,1002.52,VALID,0,VALID,92.401,VALID,0,VALID,24.2662,VALID,339,VALID,0,
2012-02-22, 03:42:05,VALID,1002.57,VALID,0,VALID,92.5154,VALID,0,VALID,24.2468,VALID,339,VALID,0,
2012-02-22, 03:43:05,VALID,1002.6,VALID,0,VALID,92.6451,VALID,0,VALID,24.2468,VALID,339,VALID,0,
2012-02-22, 03:44:05,VALID,1002.61,VALID,0,VALID,92.668,VALID,0,VALID,24.2486,VALID,339,VALID,0,
2012-02-22, 03:45:05,VALID,1002.67,VALID,0,VALID,92.668,VALID,0,VALID,24.2078,VALID,339,VALID,0,
2012-02-22, 03:46:05,VALID,1002.7,VALID,0,VALID,92.7367,VALID,0,VALID,24.2291,VALID,339,VALID,0,
2012-02-22, 03:47:05,VALID,1002.74,VALID,0,VALID,92.8282,VALID,0,VALID,24.1884,VALID,36,VALID,0,
2012-02-22, 03:48:05,VALID,1002.77,VALID,0,VALID,92.874,VALID,0,VALID,24.1689,VALID,102,VALID,0,